CZ-3C DEB, 40195

Orbit data source: Space-Track

CZ-3C DEB, 40195 is space debris in HEO originally from a launch on Fri, 24 Feb 2012 UTC launched from the Xichang Space Center, China (XSC). Debris objects in space refer to the collection of defunct objects orbiting the Earth. Examples of debris include non-operational satellites, rocket bodies, and fragments generated from explosions, collisions, or faulty payload assembly.

Loading next visibility...
Identifier
40195, 2012-008E
Orbit
HEO
Country
Flag of CNCN / PRC
Related business
Manufacturer
CALT
Mission
Spacecraft
Bus & Motor
Unknown
Mass
Unknown
Launch date (UTC)
2012-02-24 (14 years ago)
Launch vehicle
Unknown
Launch site
Xichang Space Center, China (XSC)
Object type
Payload
Rocket body
Debris
Shape & HBR
Unknown
Radar Cross Section
Medium (>0.1 m² and <1 m²)

Expand to show TLE details & history
Last TLE update: 2 days ago

TLE from 2 days ago
0 CZ-3C DEB
1 40195U 12008E   25260.42657603  .00001764  00000-0  53153-2 0  9995
2 40195  20.4601 291.8152 7120666  11.1415 358.8224  2.39278941 10595
Epoch: 2025-09-17T10:14Z
TLE epoch observation values (Epoch: 2025-09-17T10:14:16.168Z)
Latitude
-0.00027°
Longitude
141.63222°
Altitude
470.762 km
Speed
9.975 km/s
True Right ascension
19h 27m 12s
True Declination
0° 00' 01"
Sunlit
Object was in full shadow at epoch
Visualization orbit readout
Latitude
Unknown
Longitude
Unknown
Altitude
Unknown
Speed
Unknown
Apparent Right ascension
Unknown
Apparent Declination
Unknown
Sunlit
N/A
Visualization observer readout
Local Sidereal Time
18:28:57
Azimuth
Unknown
Elevation
Unknown
Doppler factor
Unknown
Orbital elements
Apogee altitude
34,054.686 km
Perigee altitude
421.809 km
Semi-major axis
23,616.385 km
Eccentricity
0.71207
Inclination
20.4601°
RAAN
291.8152°
Arg. of periapsis
11.1415°
True anomaly
350.06867°
Mean anomaly
358.8224°
Eccentric anomaly
355.9187°
Mean motion
0.59803 °/min
Orbital period
601.98 mins
BSTAR
0.0053153
Loading maneuver chart data...
Computing Atmospheric mass density...
Loading historical data...
Loading historical data...
Loading historical data...
Loading historical data...
Loading historical data...
Loading historical data...
Loading historical data...

Documentation

Showing up to 5 results
|